Regional Weather Roundup
Issued by NWS San Diego, CA

Home | Current Version | Previous Version | Text Only | Print | Product List | Glossary On
Versions: 1 2 3 4 5 6 7 8 9 10 11 12 13 14 15 16 17 18 19 20 21 22 23 24 25 26 27 28 29 30 31 32 33 34 35 36 37 38 39 40 41 42 43 44 45 46 47 48 49 50
000
ASUS46 KSGX 300611
RWRSGX

SAN DIEGO HOURLY WEATHER ROUNDUP
NATIONAL WEATHER SERVICE SAN DIEGO CA
1100 PM PDT SAT AUG 29 2015

NOTE: "FAIR" INDICATES FEW OR NO CLOUDS BELOW 12,000 FEET WITH NO
SIGNIFICANT WEATHER AND/OR OBSTRUCTIONS TO VISIBILITY.

CAZ042-043-060-061-PZZ750-775-300700-

GREATER SAN DIEGO AREA

CITY           SKY/WX    TMP DP  RH WIND       PRES   REMARKS
LINDBERGH FLD  CLEAR     76  68  76 CALM      29.88F
POINT LOMA       N/A     70  65  85 W9          N/A
NATIONAL CITY    N/A     76  70  81 CALM      29.87F
CHULA VISTA      N/A     74  70  87 CALM      29.80S
IMPERIAL BEACH CLEAR    N/A N/A N/A SW3       29.88S
BROWN FIELD    CLEAR     71  67  87 CALM      29.89S
MIRAMAR MCAS   PTCLDY    75  65  70 CALM      29.88F
MONTGOMERY FLD CLEAR     75  67  76 CALM      29.88F

$$

NORTH SAN DIEGO COUNTY

CITY           SKY/WX    TMP DP  RH WIND       PRES   REMARKS
CAMP PENDLETON CLEAR     73  66  78 CALM      29.86F
OCEANSIDE AP   CLEAR     71  66  84 CALM      29.86S
OCEANSIDE HBR    N/A     74  71  89 CALM      29.89S
VISTA            N/A     73  66  77 CALM      29.84F
CARLSBAD       CLEAR     74  69  85 S3        29.87S
DEL MAR          N/A     72  70  93 CALM      29.89S
FALLBROOK        N/A     72  70  94 CALM      29.85F
ESCONDIDO        N/A     78  63  60 CALM      29.88S
SAN MARCOS       N/A     74  65  72 CALM      29.84F
POWAY            N/A     74  62  66 CALM      29.86F

$$

EAST SAN DIEGO COUNTY

CITY           SKY/WX    TMP DP  RH WIND       PRES   REMARKS
RAMONA         CLEAR     71  54  54 CALM      29.92S
SANTEE LAKES     N/A     75  62  63 CALM      29.85F
LA MESA          N/A     75  65  70 CALM      29.80S
JAMUL            N/A     73  65  74 CALM      29.85F
DESCANSO N       N/A     73  51  45 CALM      29.73F
CAMPO            N/A     73  52  47 CALM      29.96S

$$

ORANGE COUNTY AND THE LOS ANGELES BASIN

CITY           SKY/WX    TMP DP  RH WIND       PRES   REMARKS
JOHN WAYNE AP  CLEAR     75  68  78 S3        29.85S
LAGUNA BEACH     N/A    N/A N/A N/A CALM      29.81S
LAKE FOREST FR   N/A     77  55  45 CALM      29.73F
SANTA ANA        N/A     78  67  69 CALM      29.80S
HUNTINGTON BCH   N/A     73  70  91 CALM      29.88R
LOS ALAMITOS   FAIR      74  70  88 SW5       29.85S
FULLERTON      CLEAR     79  64  60 CALM      29.84S
LONG BEACH     CLEAR     79  65  62 W8        29.85S
L.A. AP        CLEAR     74  67  78 W13       29.85S
L.A. DOWNTOWN  CLEAR     77  65  66 CALM      29.84S

$$

THE INLAND EMPIRE

CITY           SKY/WX    TMP DP  RH WIND       PRES   REMARKS
CORONA         CLEAR     78  59  52 W5        29.87S
CHINO          CLEAR     77  58  51 W6        29.88F
ONTARIO        CLEAR     79  57  46 SW5       29.88S
RIVERSIDE AP   CLEAR     80  61  52 W3        29.88S
MORENO VALLEY    N/A     78  60  53 NW1       29.87F
MARCH ARB      CLEAR     78  59  50 CALM      29.91S
HORSETHIEF CYN   N/A     79  48  33 S3        29.87F
PERRIS           N/A     80  60  50 CALM      29.90S
MENIFEE          N/A     81  61  49 SW1       29.95S
HEMET EAST       N/A     79  51  38 CALM      29.87F
FRENCH VALLEY  FAIR      79  57  47 CALM      29.91F
TEMECULA         N/A     78  60  54 CALM      29.87S

$$

SAN BERNARDINO AND RIVERSIDE COUNTY MOUNTAINS

CITY           SKY/WX    TMP DP  RH WIND       PRES   REMARKS
BIG BEAR AP    CLEAR     55  37  50 CALM      30.26F
PINE COVE        N/A     67  44  43 CALM      29.83F

$$

SOUTHERN DESERT INCLUDING THE COACHELLA VALLEY

CITY           SKY/WX    TMP DP  RH WIND       PRES   REMARKS
PALM SPRINGS   CLEAR    100  47  16 NW12      29.75S HX  96
THOUSAND PALMS   N/A     94  55  26 W14       29.71S
PALM DESERT      N/A     95  57  27 CALM        N/A
THERMAL        CLEAR     97  52  21 N16       29.68R
BLYTHE         CLEAR    102  58  23 SW12      29.72S HX 102
IMPERIAL AP    CLEAR     92  53  26 W8        29.71R
EL CENTRO NAS  CLEAR     94  50  22 W10       29.73R
YUMA AZ        PTCLDY    94  67  41 CALM      29.74R HX  97

$$

UPPER DESERT

CITY           SKY/WX    TMP DP  RH WIND       PRES   REMARKS
VICTORVILLE AP CLEAR     79  45  29 CALM      29.99R
APPLE VALLEY     N/A     79  47  33 CALM      30.04R
PALMDALE       CLEAR     80  48  32 W8        29.98S
LANCASTER      CLEAR     80  48  32 W10       29.96S
EDWARDS AFB    CLEAR     78  45  31 SW8       29.93S
DAGGETT        CLEAR     88  44  21 W17G29    29.89R
29 PALMS N     CLEAR     89  42  19 NW9       29.94R
NEEDLES        CLEAR    102  45  14 SW12      29.73S HX  98

$$

REGIONAL REPORTS

CITY           SKY/WX    TMP DP  RH WIND       PRES   REMARKS
SANTA BARBARA  PTCLDY    80  60  50 S5        29.82S
SANDBERG       CLEAR     72  48  42 N16G22    30.12F
LAS VEGAS NV   PTCLDY    94  36  13 SW10      29.79R
PHOENIX AZ     MOCLDY    86  70  58 E8        29.82F
TIJUANA        CLEAR     72  64  78 W5        29.91S
ENSENADA NW      N/A     74  32  21 CALM      29.85S

$$

OFFSHORE ISLANDS

CITY           SKY/WX    TMP DP  RH WIND       PRES   REMARKS
CATALINA ARPT  CLEAR     77  53  43 NW13      29.94F
SAN NICOLAS IS CLEAR    N/A N/A N/A NW32G41   29.90F

$$

MARINE AND OFFSHORE BUOY REPORTS

STATION/POSITION SKY/WX   TEMP    WIND        PRES    SWELL
                          AIR SEA DIR/SP/G            HT/PER/DIR
                          (F)     (DEG/KT/KT) (MB)    (FT/S/D)
TANNER BANKS               69 70  320/ 21/ 25 1012.2F   3/310/15
S CLEMENTE BASIN           71 72  290/ 14/ 16 1011.3S   3/190/14
SO. S. ROSA ISLA           65 65  320/ 19/ 23 1011.6S   2/14
W. S. BARBARA CH           65 64  320/ 21/ 27 1012.0R   3/270/15
M. S. BARBARA CH           72 69  270/ 19/ 23 1010.6R
S. MONICA BASIN            72 73  270/ 12/ 16 1010.4S   3/260/ 6
S PEDRO CHANNEL               73                N/A     2/230/15
DANA POINT                    74                N/A     3/190/13
OCEANSIDE OFFSHR              76                N/A     2/200/14
TORREY PINES OTR              76                N/A     3/210/14
MISSION BAY BUOY              76                N/A     2/210/13
POINT LOMA SOUTH              74                N/A     3/200/14

$$




USA.gov is the U.S. government's official web portal to all federal, state and local government web resources and services.